Location: Poughquag
(41.6090°N, 73.6820°W)
Time: 12:41:48
(UTC-04:00)

Tiros 1 - Pass Details

Date: 31 May 2020
Orbit: 630 x 664 km, 48.4° (Epoch: 06 July)

Event Time Altitude Azimuth Distance (km) Brightness Sun altitude
Rises 18:44:57 0° 297° (WNW) 2,942 12.2 15.8°
Reaches altitude 10° 18:47:18 10° 296° (WNW) 2,025 12.0 15.4°
Maximum altitude 18:51:56 73° 212° (SSW) 663 7.6 14.6°
Drops below altitude 10° 18:56:32 10° 128° (SE) 2,002 9.2 13.8°
Sets 18:58:50 0° 126° (SE) 2,905 9.9 13.3°
